Location: Foligno
(42.9600°N, 12.7050°E)
Time: 21:15:19
(UTC+01:00)

ISS - Pass Details

Date: 15 January 2018
Orbit: 402 x 407 km, 51.6° (Epoch: 17 January)

Event Time Altitude Azimuth Distance (km) Brightness Sun altitude
Exits shadow 06:59:28 - 267° (W) 1,666 -1.3 -7.1°
Reaches altitude 10° 07:00:26 10° 254° (WSW) 1,460 -1.5 -7.0°
Maximum altitude 07:01:46 12° 229° (SW) 1,343 -1.4 -6.8°
Drops below altitude 10° 07:03:06 10° 205° (SSW) 1,457 -1.0 -6.5°
Sets 07:06:12 0° 173° (S) 2,311 0.5 -6.0°
